TimeEST,TemperatureF,Dew PointF,Humidity,Sea Level PressureIn,VisibilityMPH,Wind Direction,Wind SpeedMPH,Gust SpeedMPH,PrecipitationIn,Events,Conditions,WindDirDegrees,DateUTC
12:15 AM,-1.7,-8.3,73,30.58,10.0,West,8.1,-,N/A,,Clear,280,2014-01-24 05:15:00
12:35 AM,-2.2,-9.0,73,30.59,10.0,West,9.2,-,N/A,,Scattered Clouds,280,2014-01-24 05:35:00
12:55 AM,-2.0,-9.2,71,30.58,10.0,West,10.4,-,N/A,,Clear,270,2014-01-24 05:55:00
1:15 AM,-2.2,-9.6,71,30.58,10.0,West,8.1,-,N/A,,Clear,270,2014-01-24 06:15:00
1:35 AM,-2.7,-10.3,70,30.58,10.0,West,6.9,-,N/A,,Scattered Clouds,270,2014-01-24 06:35:00
1:55 AM,-2.6,-9.8,71,30.57,10.0,West,8.1,-,N/A,,Scattered Clouds,260,2014-01-24 06:55:00
2:15 AM,-3.6,-10.5,72,30.57,10.0,WSW,8.1,-,N/A,,Scattered Clouds,250,2014-01-24 07:15:00
2:35 AM,-3.8,-10.5,73,30.57,10.0,WSW,5.8,-,N/A,,Scattered Clouds,250,2014-01-24 07:35:00
2:55 AM,-4.2,-11.2,72,30.57,10.0,WSW,6.9,-,N/A,,Scattered Clouds,250,2014-01-24 07:55:00
3:15 AM,-4.5,-11.6,72,30.56,10.0,WSW,5.8,-,N/A,,Clear,250,2014-01-24 08:15:00
3:35 AM,-6.0,-12.6,73,30.56,10.0,WSW,5.8,-,N/A,,Clear,240,2014-01-24 08:35:00
3:55 AM,-5.6,-11.6,75,30.56,10.0,SW,6.9,-,N/A,,Clear,230,2014-01-24 08:55:00
4:15 AM,-5.8,-11.7,75,30.55,10.0,WSW,6.9,-,N/A,,Clear,240,2014-01-24 09:15:00
4:35 AM,-5.4,-11.4,76,30.53,10.0,SW,6.9,-,N/A,,Clear,230,2014-01-24 09:35:00
4:55 AM,-6.0,-12.3,74,30.53,10.0,SW,5.8,-,N/A,,Clear,230,2014-01-24 09:55:00
5:15 AM,-6.5,-12.8,74,30.53,10.0,SW,6.9,-,N/A,,Clear,230,2014-01-24 10:15:00
5:35 AM,-7.2,-13.7,73,30.52,10.0,SW,6.9,-,N/A,,Clear,220,2014-01-24 10:35:00
5:55 AM,-6.7,-13.0,74,30.51,10.0,SSW,5.8,-,N/A,,Clear,210,2014-01-24 10:55:00
6:15 AM,-6.9,-13.2,74,30.51,10.0,SSW,6.9,-,N/A,,Clear,210,2014-01-24 11:15:00
6:35 AM,-7.2,-13.7,73,30.50,10.0,SSW,6.9,-,N/A,,Clear,200,2014-01-24 11:35:00
6:55 AM,-7.2,-13.7,73,30.49,10.0,SSW,5.8,-,N/A,,Clear,200,2014-01-24 11:55:00
7:15 AM,-6.3,-13.0,73,30.47,10.0,SSW,6.9,-,N/A,,Clear,200,2014-01-24 12:15:00
7:35 AM,-7.1,-13.5,73,30.47,10.0,SSW,6.9,-,N/A,,Clear,210,2014-01-24 12:35:00
7:55 AM,-5.8,-12.3,74,30.47,10.0,SSW,6.9,-,N/A,,Clear,210,2014-01-24 12:55:00
8:15 AM,-5.4,-12.3,72,30.45,10.0,SSW,8.1,-,N/A,,Clear,200,2014-01-24 13:15:00
8:35 AM,-4.5,-11.4,72,30.45,10.0,SSW,10.4,-,N/A,,Clear,210,2014-01-24 13:35:00
8:55 AM,-3.5,-10.5,72,30.43,10.0,SSW,9.2,-,N/A,,Clear,200,2014-01-24 13:55:00
9:15 AM,-1.5,-9.4,69,30.42,10.0,SSW,10.4,-,N/A,,Clear,210,2014-01-24 14:15:00
9:35 AM,-0.0,-8.5,68,30.42,10.0,SSW,12.7,17.3,N/A,,Clear,210,2014-01-24 14:35:00
9:55 AM,1.4,-7.8,65,30.41,10.0,SSW,15.0,19.6,N/A,,Clear,210,2014-01-24 14:55:00
10:15 AM,2.7,-7.1,64,30.40,10.0,SSW,15.0,24.2,N/A,,Clear,210,2014-01-24 15:15:00
10:35 AM,4.1,-6.5,61,30.38,10.0,SSW,16.1,21.9,N/A,,Clear,210,2014-01-24 15:35:00
10:55 AM,5.0,-5.8,61,30.37,10.0,SSW,16.1,25.3,N/A,,Clear,210,2014-01-24 15:55:00
11:15 AM,6.3,-5.1,60,30.36,10.0,SW,19.6,25.3,N/A,,Clear,220,2014-01-24 16:15:00
11:35 AM,7.3,-4.4,59,30.34,10.0,SSW,18.4,24.2,N/A,,Clear,210,2014-01-24 16:35:00
11:55 AM,8.8,-3.6,57,30.32,10.0,SSW,20.7,27.6,N/A,,Clear,210,2014-01-24 16:55:00
12:15 PM,10.0,-2.9,56,30.30,10.0,SW,19.6,24.2,N/A,,Clear,220,2014-01-24 17:15:00
12:35 PM,11.1,-2.7,54,30.28,7.0,SSW,20.7,28.8,N/A,,Clear,210,2014-01-24 17:35:00
12:55 PM,11.7,-2.4,53,30.24,10.0,SSW,23.0,32.2,N/A,,Clear,210,2014-01-24 17:55:00
1:15 PM,12.7,-2.0,52,30.21,10.0,SSW,23.0,29.9,N/A,,Clear,210,2014-01-24 18:15:00
1:35 PM,13.5,-1.7,51,30.18,10.0,SSW,18.4,31.1,N/A,,Clear,210,2014-01-24 18:35:00
1:55 PM,14.0,-0.8,52,30.15,5.0,SSW,24.2,32.2,N/A,,Haze,200,2014-01-24 18:55:00
2:15 PM,14.9,-0.9,50,30.13,10.0,SSW,21.9,31.1,N/A,,Clear,200,2014-01-24 19:15:00
2:35 PM,15.4,-0.2,50,30.11,5.0,SSW,21.9,36.8,N/A,,Haze,210,2014-01-24 19:35:00
2:55 PM,16.5,0.3,49,30.07,7.0,SSW,25.3,33.4,N/A,,Clear,200,2014-01-24 19:55:00
3:15 PM,16.5,0.7,50,30.06,4.0,SSW,24.2,39.1,N/A,,Haze,210,2014-01-24 20:15:00
3:35 PM,16.7,0.3,49,30.04,7.0,SSW,24.2,34.5,N/A,,Clear,210,2014-01-24 20:35:00
3:55 PM,17.6,-0.6,45,30.03,10.0,SSW,24.2,33.4,N/A,,Clear,200,2014-01-24 20:55:00
4:15 PM,18.0,-0.8,44,30.01,10.0,SSW,19.6,27.6,N/A,,Clear,200,2014-01-24 21:15:00
4:35 PM,18.1,-0.0,45,29.97,7.0,SSW,26.5,36.8,N/A,,Scattered Clouds,200,2014-01-24 21:35:00
4:55 PM,18.1,0.3,46,29.94,7.0,SSW,23.0,41.4,N/A,,Clear,200,2014-01-24 21:55:00
5:15 PM,18.5,0.5,45,29.94,10.0,SSW,24.2,35.7,N/A,,Clear,200,2014-01-24 22:15:00
5:35 PM,19.0,0.5,44,29.92,10.0,SSW,26.5,31.1,N/A,,Clear,210,2014-01-24 22:35:00
5:55 PM,19.4,2.1,47,29.91,5.0,SSW,25.3,39.1,N/A,,Haze,210,2014-01-24 22:55:00
6:15 PM,19.4,2.1,47,29.90,10.0,SSW,26.5,34.5,N/A,,Clear,210,2014-01-24 23:15:00
6:35 PM,19.6,2.8,48,29.90,10.0,SSW,27.6,41.4,N/A,,Clear,210,2014-01-24 23:35:00
6:55 PM,19.4,3.4,50,29.90,10.0,SSW,21.9,35.7,N/A,,Scattered Clouds,200,2014-01-24 23:55:00
7:15 PM,19.6,3.7,50,29.90,10.0,SSW,21.9,28.8,N/A,,Clear,210,2014-01-25 00:15:00
7:35 PM,19.9,3.6,49,29.90,10.0,SSW,23.0,28.8,N/A,,Scattered Clouds,200,2014-01-25 00:35:00
7:55 PM,20.1,3.7,49,29.89,10.0,SSW,18.4,31.1,N/A,,Scattered Clouds,210,2014-01-25 00:55:00
8:15 PM,20.3,3.9,49,29.86,10.0,SSW,23.0,31.1,N/A,,Clear,210,2014-01-25 01:15:00
8:35 PM,20.8,3.7,48,29.86,10.0,SW,23.0,28.8,N/A,,Scattered Clouds,220,2014-01-25 01:35:00
8:55 PM,21.2,3.7,47,29.84,10.0,SW,23.0,31.1,N/A,,Mostly Cloudy,220,2014-01-25 01:55:00
9:15 PM,21.7,4.1,47,29.83,10.0,SSW,24.2,31.1,N/A,,Overcast,210,2014-01-25 02:15:00
9:35 PM,21.9,4.3,47,29.83,10.0,SW,25.3,35.7,N/A,,Overcast,220,2014-01-25 02:35:00
9:55 PM,22.1,4.3,46,29.83,10.0,SW,25.3,34.5,N/A,,Overcast,230,2014-01-25 02:55:00
10:15 PM,21.2,9.0,59,29.82,2.5,SW,27.6,38.0,N/A,Snow,Light Snow,230,2014-01-25 03:15:00
10:35 PM,20.3,11.8,70,29.80,2.5,SW,24.2,31.1,N/A,Snow,Light Snow,230,2014-01-25 03:35:00
10:55 PM,19.9,13.1,75,29.78,2.0,SW,19.6,29.9,N/A,Snow,Light Snow,220,2014-01-25 03:55:00
11:15 PM,19.9,13.8,77,29.76,3.0,SSW,23.0,29.9,N/A,Snow,Light Snow,210,2014-01-25 04:15:00
11:35 PM,20.1,13.5,75,29.75,2.5,SSW,20.7,32.2,N/A,Snow,Light Snow,210,2014-01-25 04:35:00
11:55 PM,20.3,12.9,73,29.74,3.0,SW,20.7,29.9,N/A,Snow,Light Snow,220,2014-01-25 04:55:00